When you browse on this site, cookies collect data to enhance your experience and personalize the content and advertising you see.
Visit our Privacy Policy to learn more. By continuing to use the site, you agree to this use of cookies and data.
  • în România
  • Lista ţărilor
  • Pe 7 zile
  • Temperatura apei
  • Hartă satelitară
  • Meteo pe hartă
  • Widget-uri
  • user-avatar
    Intrare

    Meteo pe oră la Tucupita

    Astăzi, 21 Martie, Joi

    Timp Temperatura Precipitaţii Vânt Presiune Umiditate
    00:00 +25°C° 0 mm 1 m/s 759 mmHg 86%
    01:00 +24°C° 0 mm 1 m/s 759 mmHg 90%
    02:00 +24°C° 0 mm 1 m/s 758 mmHg 93%
    03:00 +23°C° 0 mm 1 m/s 758 mmHg 95%
    04:00 +23°C° 0 mm 1 m/s 758 mmHg 97%
    05:00 +23°C° 0 mm 1 m/s 758 mmHg 98%
    06:00 +24°C° 0 mm 1 m/s 759 mmHg 91%
    07:00 +26°C° 0 mm 1 m/s 759 mmHg 83%
    08:00 +27°C° 0 mm 2 m/s 759 mmHg 76%
    09:00 +30°C° 0 mm 2 m/s 759 mmHg 66%
    10:00 +32°C° 0 mm 2 m/s 759 mmHg 55%
    11:00 +35°C° 0 mm 2 m/s 759 mmHg 45%
    12:00 +36°C° 0 mm 2 m/s 759 mmHg 42%
    13:00 +37°C° 0 mm 3 m/s 758 mmHg 40%
    14:00 +38°C° 0 mm 3 m/s 757 mmHg 37%
    15:00 +37°C° 0 mm 3 m/s 756 mmHg 39%
    16:00 +36°C° 0 mm 3 m/s 756 mmHg 42%
    17:00 +35°C° 0 mm 3 m/s 755 mmHg 44%
    18:00 +33°C° 0 mm 3 m/s 756 mmHg 52%
    19:00 +30°C° 0 mm 3 m/s 756 mmHg 59%
    20:00 +28°C° 0 mm 3 m/s 757 mmHg 67%
    21:00 +27°C° 0 mm 2 m/s 758 mmHg 73%
    22:00 +26°C° 0 mm 2 m/s 758 mmHg 79%
    23:00 +25°C° 0 mm 2 m/s 759 mmHg 85%

    Mâine, 22 Martie, Vineri

    Timp Temperatura Precipitaţii Vânt Presiune Umiditate
    00:00 +24°C° 0 mm 1 m/s 759 mmHg 89%
    01:00 +24°C° 0 mm 1 m/s 758 mmHg 92%
    02:00 +23°C° 0 mm 1 m/s 758 mmHg 96%
    03:00 +23°C° 0 mm 1 m/s 758 mmHg 97%
    04:00 +23°C° 0 mm 1 m/s 758 mmHg 97%
    05:00 +23°C° 0 mm 1 m/s 758 mmHg 98%
    06:00 +24°C° 0 mm 1 m/s 759 mmHg 91%
    07:00 +26°C° 0 mm 1 m/s 759 mmHg 84%
    08:00 +27°C° 0 mm 2 m/s 760 mmHg 77%
    09:00 +29°C° 0 mm 2 m/s 760 mmHg 67%
    10:00 +32°C° 0 mm 2 m/s 760 mmHg 57%
    11:00 +35°C° 0 mm 2 m/s 760 mmHg 47%
    12:00 +36°C° 0 mm 2 m/s 759 mmHg 43%
    13:00 +37°C° 0 mm 2 m/s 758 mmHg 40%
    14:00 +38°C° 0 mm 3 m/s 757 mmHg 36%
    15:00 +38°C° 0 mm 3 m/s 756 mmHg 37%
    16:00 +37°C° 0 mm 3 m/s 756 mmHg 38%
    17:00 +36°C° 0 mm 3 m/s 756 mmHg 39%
    18:00 +34°C° 0 mm 3 m/s 756 mmHg 45%
    19:00 +31°C° 0 mm 3 m/s 757 mmHg 52%
    20:00 +28°C° 0 mm 3 m/s 758 mmHg 58%
    21:00 +27°C° 0 mm 3 m/s 758 mmHg 66%
    22:00 +26°C° 0 mm 2 m/s 759 mmHg 75%
    23:00 +25°C° 0 mm 2 m/s 760 mmHg 83%

    Poimâine, 23 Martie, Sâmbătă

    Timp Temperatura Precipitaţii Vânt Presiune Umiditate
    00:00 +24°C° 0 mm 2 m/s 759 mmHg 87%
    01:00 +24°C° 0 mm 1 m/s 759 mmHg 91%
    02:00 +23°C° 0 mm 1 m/s 759 mmHg 95%
    03:00 +23°C° 0 mm 1 m/s 759 mmHg 96%
    04:00 +23°C° 0 mm 1 m/s 759 mmHg 97%
    05:00 +22°C° 0 mm 1 m/s 759 mmHg 98%
    06:00 +24°C° 0 mm 1 m/s 759 mmHg 90%
    07:00 +26°C° 0 mm 2 m/s 760 mmHg 83%
    08:00 +27°C° 0 mm 2 m/s 760 mmHg 75%
    09:00 +30°C° 0 mm 2 m/s 760 mmHg 64%
    10:00 +32°C° 0 mm 2 m/s 761 mmHg 53%
    11:00 +35°C° 0 mm 2 m/s 761 mmHg 43%
    12:00 +37°C° 0 mm 2 m/s 760 mmHg 38%
    13:00 +38°C° 0 mm 2 m/s 759 mmHg 33%
    14:00 +39°C° 0 mm 2 m/s 758 mmHg 29%
    15:00 +38°C° 0 mm 3 m/s 757 mmHg 30%
    16:00 +38°C° 0 mm 3 m/s 757 mmHg 31%
    17:00 +37°C° 0 mm 4 m/s 756 mmHg 32%
    18:00 +35°C° 0 mm 3 m/s 757 mmHg 40%
    19:00 +31°C° 0 mm 3 m/s 758 mmHg 49%
    20:00 +29°C° 0 mm 3 m/s 758 mmHg 57%
    21:00 +27°C° 0 mm 3 m/s 759 mmHg 65%
    22:00 +26°C° 0 mm 2 m/s 759 mmHg 72%
    23:00 +25°C° 0 mm 2 m/s 760 mmHg 79%

    24 Martie, Duminică

    Timp Temperatura Precipitaţii Vânt Presiune Umiditate
    00:00 +25°C° 0 mm 2 m/s 759 mmHg 83%
    01:00 +24°C° 0 mm 1 m/s 759 mmHg 87%
    02:00 +23°C° 0 mm 1 m/s 759 mmHg 91%
    03:00 +23°C° 0 mm 1 m/s 759 mmHg 93%
    04:00 +22°C° 0 mm 1 m/s 759 mmHg 95%
    05:00 +22°C° 0 mm 1 m/s 759 mmHg 96%
    06:00 +24°C° 0 mm 1 m/s 759 mmHg 88%
    07:00 +26°C° 0 mm 1 m/s 760 mmHg 80%
    08:00 +27°C° 0 mm 2 m/s 760 mmHg 72%
    09:00 +30°C° 0 mm 2 m/s 760 mmHg 62%
    10:00 +32°C° 0 mm 2 m/s 760 mmHg 52%
    11:00 +36°C° 0 mm 2 m/s 760 mmHg 41%
    12:00 +36°C° 0 mm 2 m/s 759 mmHg 38%
    13:00 +37°C° 0 mm 2 m/s 758 mmHg 35%
    14:00 +38°C° 0 mm 2 m/s 757 mmHg 31%
    15:00 +38°C° 0 mm 2 m/s 757 mmHg 32%
    16:00 +37°C° 0 mm 3 m/s 756 mmHg 32%
    17:00 +36°C° 0 mm 3 m/s 756 mmHg 32%
    18:00 +34°C° 0 mm 3 m/s 756 mmHg 39%
    19:00 +31°C° 0 mm 3 m/s 757 mmHg 46%
    20:00 +28°C° 0 mm 3 m/s 757 mmHg 54%
    21:00 +27°C° 0 mm 2 m/s 758 mmHg 64%
    22:00 +26°C° 0 mm 2 m/s 758 mmHg 74%
    23:00 +24°C° 0 mm 2 m/s 759 mmHg 84%

    25 Martie, Luni

    Timp Temperatura Precipitaţii Vânt Presiune Umiditate
    00:00 +24°C° 0 mm 1 m/s 758 mmHg 88%
    01:00 +23°C° 0 mm 1 m/s 758 mmHg 92%
    02:00 +23°C° 0 mm 1 m/s 757 mmHg 96%
    03:00 +22°C° 0 mm 1 m/s 757 mmHg 97%
    04:00 +22°C° 0 mm 1 m/s 758 mmHg 98%
    05:00 +22°C° 0 mm 1 m/s 758 mmHg 98%
    06:00 +24°C° 0 mm 1 m/s 758 mmHg 91%
    07:00 +25°C° 0 mm 1 m/s 759 mmHg 84%
    08:00 +27°C° 0 mm 2 m/s 760 mmHg 77%
    09:00 +29°C° 0 mm 2 m/s 759 mmHg 66%
    10:00 +32°C° 0 mm 2 m/s 759 mmHg 55%
    11:00 +35°C° 0 mm 2 m/s 759 mmHg 44%
    12:00 +35°C° 0 mm 2 m/s 758 mmHg 43%
    13:00 +36°C° 0 mm 3 m/s 757 mmHg 42%
    14:00 +36°C° 0 mm 3 m/s 756 mmHg 40%
    15:00 +36°C° 0 mm 3 m/s 756 mmHg 42%
    16:00 +35°C° 0 mm 3 m/s 755 mmHg 43%
    17:00 +35°C° 0 mm 3 m/s 755 mmHg 45%
    18:00 +33°C° 0 mm 3 m/s 755 mmHg 51%
    19:00 +30°C° 0 mm 3 m/s 756 mmHg 58%
    20:00 +28°C° 0 mm 3 m/s 757 mmHg 64%
    21:00 +27°C° 0 mm 2 m/s 757 mmHg 70%
    22:00 +26°C° 0 mm 2 m/s 758 mmHg 76%
    23:00 +25°C° 0 mm 2 m/s 758 mmHg 82%

    26 Martie, Marţi

    Timp Temperatura Precipitaţii Vânt Presiune Umiditate
    00:00 +25°C° 0 mm 1 m/s 758 mmHg 86%
    01:00 +24°C° 0 mm 1 m/s 757 mmHg 89%
    02:00 +24°C° 0 mm 1 m/s 757 mmHg 93%
    03:00 +23°C° 0 mm 1 m/s 757 mmHg 95%
    04:00 +23°C° 0 mm 1 m/s 757 mmHg 97%
    05:00 +23°C° 0 mm 1 m/s 758 mmHg 98%
    06:00 +24°C° 0 mm 1 m/s 758 mmHg 91%
    07:00 +26°C° 0 mm 2 m/s 759 mmHg 83%
    08:00 +27°C° 0 mm 2 m/s 759 mmHg 75%
    09:00 +30°C° 0 mm 2 m/s 759 mmHg 66%
    10:00 +32°C° 0 mm 2 m/s 759 mmHg 57%
    11:00 +35°C° 0 mm 2 m/s 759 mmHg 47%
    12:00 +36°C° 0 mm 2 m/s 758 mmHg 44%
    13:00 +36°C° 0 mm 2 m/s 757 mmHg 41%
    14:00 +37°C° 0 mm 2 m/s 756 mmHg 38%
    15:00 +37°C° 0 mm 2 m/s 755 mmHg 40%
    16:00 +36°C° 0 mm 3 m/s 755 mmHg 43%
    17:00 +35°C° 0 mm 3 m/s 755 mmHg 45%
    18:00 +34°C° 0 mm 3 m/s 755 mmHg 51%
    19:00 +31°C° 0 mm 3 m/s 756 mmHg 57%
    20:00 +29°C° 0 mm 3 m/s 757 mmHg 64%
    21:00 +28°C° 0 mm 3 m/s 757 mmHg 70%
    22:00 +27°C° 0 mm 2 m/s 758 mmHg 76%
    23:00 +26°C° 0 mm 2 m/s 758 mmHg 82%
    Arată mai mult